TimeCST,TemperatureF,Dew PointF,Humidity,Sea Level PressureIn,VisibilityMPH,Wind Direction,Wind SpeedMPH,Gust SpeedMPH,PrecipitationIn,Events,Conditions,WindDirDegrees,DateUTC
12:53 AM,21.0,17.1,85,30.21,10.0,NW,9.2,-,N/A,,Overcast,310,2012-12-31 06:53:00
1:19 AM,21.2,17.6,86,30.16,10.0,West,6.9,-,N/A,,Overcast,280,2012-12-31 07:19:00
1:53 AM,21.9,17.1,82,30.23,10.0,WNW,9.2,-,N/A,,Overcast,300,2012-12-31 07:53:00
2:53 AM,21.9,18.0,85,30.25,10.0,NW,8.1,-,N/A,,Overcast,310,2012-12-31 08:53:00
3:53 AM,21.9,17.1,82,30.25,10.0,North,5.8,-,N/A,,Overcast,360,2012-12-31 09:53:00
4:53 AM,21.9,16.0,78,30.26,10.0,NNW,4.6,-,N/A,,Overcast,330,2012-12-31 10:53:00
5:53 AM,21.9,16.0,78,30.27,10.0,Calm,Calm,-,N/A,,Overcast,0,2012-12-31 11:53:00
6:53 AM,21.0,14.0,74,30.25,10.0,North,13.8,-,N/A,,Overcast,360,2012-12-31 12:53:00
7:53 AM,19.9,12.9,74,30.28,10.0,North,6.9,-,N/A,,Overcast,10,2012-12-31 13:53:00
8:53 AM,19.0,12.0,74,30.28,10.0,North,6.9,-,N/A,,Overcast,10,2012-12-31 14:53:00
9:53 AM,19.0,12.9,77,30.29,10.0,NW,3.5,-,N/A,,Overcast,310,2012-12-31 15:53:00
10:53 AM,19.9,12.9,74,30.29,10.0,North,4.6,-,N/A,,Overcast,10,2012-12-31 16:53:00
11:53 AM,19.9,12.9,74,30.28,10.0,Calm,Calm,-,N/A,,Overcast,0,2012-12-31 17:53:00
12:00 PM,19.4,12.2,74,30.21,10.0,Calm,Calm,-,N/A,,Overcast,0,2012-12-31 18:00:00
12:53 PM,19.9,12.0,71,30.27,10.0,Calm,Calm,-,N/A,,Overcast,0,2012-12-31 18:53:00
1:05 PM,19.4,12.2,74,30.20,10.0,Calm,Calm,-,N/A,,Overcast,0,2012-12-31 19:05:00
1:35 PM,21.2,12.2,68,30.19,10.0,NNE,3.5,-,N/A,,Overcast,20,2012-12-31 19:35:00
1:53 PM,21.0,12.0,68,30.25,10.0,Calm,Calm,-,N/A,,Overcast,0,2012-12-31 19:53:00
2:53 PM,21.0,12.9,71,30.25,10.0,Calm,Calm,-,N/A,,Overcast,0,2012-12-31 20:53:00
3:09 PM,19.4,12.2,74,30.19,10.0,Calm,Calm,-,N/A,,Overcast,0,2012-12-31 21:09:00
3:53 PM,19.0,12.0,74,30.26,10.0,ENE,4.6,-,N/A,,Overcast,60,2012-12-31 21:53:00
5:53 PM,18.0,10.9,74,30.27,10.0,NE,4.6,-,N/A,,Overcast,50,2012-12-31 23:53:00
6:53 PM,17.1,10.9,77,30.29,10.0,ENE,4.6,-,N/A,,Overcast,70,2013-01-01 00:53:00
7:53 PM,17.1,10.9,77,30.28,10.0,ESE,4.6,-,N/A,,Overcast,120,2013-01-01 01:53:00
8:53 PM,18.0,10.9,74,30.28,10.0,South,5.8,-,N/A,,Overcast,170,2013-01-01 02:53:00
9:53 PM,18.0,12.0,78,30.28,10.0,South,8.1,-,N/A,,Overcast,170,2013-01-01 03:53:00
10:53 PM,17.1,12.0,81,30.29,10.0,South,9.2,-,N/A,,Overcast,170,2013-01-01 04:53:00
11:53 PM,17.1,10.9,77,30.29,10.0,South,11.5,-,N/A,,Overcast,180,2013-01-01 05:53:00